[[{"header":{"parameterUnit":"m.s-1","parameterCategory":1,"la1":30.2992,"la2":30.254,"lo1":-89.0895,"lo2":-89.0443,"dy":0.0025,"dx":0.0025,"nx":19,"ny":19,"refTime":"2026-03-24T21:00:00:Z","depth":0,"parameterNumber":2,"parameterNumberName":"U-component_of_WINDS"},"data":[0,0,0,-3.6939,-3.6944,-3.7179,-3.718,-3.7473,-3.7476,0,0,0,0,0,0,0,0,0,0,0,-3.6865,-3.6867,-3.6938,-3.6944,-3.7179,-3.718,-3.7473,-3.7476,0,0,0,0,0,0,0,0,0,0,0,-3.6864,-3.6866,-3.6868,-3.6945,-3.7178,-3.718,-3.7472,-3.7297,0,0,0,0,0,0,0,0,0,0,-3.707,-3.6998,-3.6866,-3.6868,-3.6946,-3.7178,-3.718,-3.7289,-3.7308,-3.7364,0,-3.7412,0,-3.7448,-3.7495,-3.7496,0,0,0,-3.6947,-3.6982,-3.7049,-3.6869,-3.6948,-3.7178,-3.7074,-3.73,-3.7322,-3.7389,-3.7416,-3.7427,-3.7453,-3.7497,-3.7498,-3.7806,-3.7808,0,0,-3.6934,-3.6905,-3.7034,-3.7063,-3.7026,-3.7066,-3.7081,-3.7313,-3.734,-3.7417,-3.7434,-3.7458,-3.7499,-3.7501,-3.7805,-3.7807,0,0,0,-3.6895,-3.6895,-3.6957,-3.7051,-3.7093,-3.7073,-3.709,-3.733,-3.7353,-3.7437,-3.7461,-3.75,-3.7504,-3.7804,-3.7806,-3.7838,0,0,0,-3.6887,-3.6872,-3.6951,-3.6935,-3.7089,-3.7215,-3.7101,-3.7337,-3.7364,-3.746,-3.75,-3.7507,-3.7803,-3.7805,-3.7835,-3.7858,0,0,0,-3.6851,-3.6868,-3.6901,-3.6933,-3.7033,-3.7212,-3.7248,-3.7343,-3.7379,-3.7496,-3.7507,-3.7802,-3.7804,-3.7831,-3.7852,-3.7929,0,0,0,-3.6803,-3.6927,-3.6901,-3.7049,-3.7031,-3.7231,-3.7247,-3.7397,-3.7502,-3.7502,-3.7803,-3.7806,-3.783,-3.7849,-3.7925,-3.7986,-3.8009,0,0,-3.6942,-3.6943,-3.7032,-3.7015,-3.7212,-3.7197,-3.74,-3.7524,-3.7563,-3.7723,-3.7731,-3.7836,-3.7852,-3.7928,-3.8154,-3.8172,0,0,0,-3.7066,-3.7129,-3.7188,-3.7286,-3.7385,-3.7471,-3.7568,-3.7615,-3.7752,-3.7639,-3.7887,-3.7897,-3.7943,-3.7973,-3.7989,-3.8029,-3.7819,-3.7819,-3.7819,-3.7217,-3.7261,-3.7412,-3.7484,-3.7579,-3.7679,-3.776,-3.784,-3.7856,-3.7914,-3.7961,-3.8093,-3.8127,-3.8139,-3.818,-3.7999,-3.7999,-3.7999,-3.7999,-3.7423,-3.7518,-3.7539,-3.7691,-3.7737,-3.7866,-3.7968,-3.7975,-3.8102,-3.8061,-3.8104,-3.8052,-3.8157,-3.8196,-3.8002,-3.8002,-3.8002,-3.8001,-3.8001,-3.7524,-3.7577,-3.7633,-3.778,-3.7889,-3.7959,-3.808,-3.8118,-3.8155,-3.8197,-3.825,-3.8249,-3.8251,-3.822,-3.8221,-3.8221,-3.8222,-3.8222,-3.8222,-3.7606,-3.7667,-3.7764,-3.788,-3.7949,-3.8044,-3.8147,-3.8216,-3.8301,-3.832,-3.832,-3.8329,-3.8161,-3.8115,-3.823,-3.8228,-3.8227,-3.8227,-3.8226,-3.7792,-3.7757,-3.7905,-3.7974,-3.8114,-3.8219,-3.8268,-3.8405,-3.8468,-3.8526,-3.8528,-3.8398,-3.84,-3.8388,-3.8351,-3.8519,-3.8519,-3.8519,-3.8519,-3.7875,-3.7881,-3.8042,-3.8149,-3.8259,-3.8319,-3.8486,-3.8568,-3.8647,-3.8689,-3.8671,-3.8626,-3.8613,-3.8623,-3.8606,-3.8572,-3.8792,-3.8793,-3.8793,-3.7991,-3.801,-3.8143,-3.8221,-3.8334,-3.8429,-3.8587,-3.871,-3.8793,-3.8805,-3.8722,-3.871,-3.8638,-3.8613,-3.8618,-3.8591,-3.8529,0,0]},{"header":{"parameterUnit":"m.s-1","parameterCategory":1,"la1":30.2992,"la2":30.254,"lo1":-89.0895,"lo2":-89.0443,"dy":0.0025,"dx":0.0025,"nx":19,"ny":19,"refTime":"2026-03-24T21:00:00:Z","depth":0,"parameterNumber":3,"parameterNumberName":"V-component_of_WINDS"},"data":[0,0,0,1.8507,1.851,1.8665,1.8665,1.8845,1.8846,0,0,0,0,0,0,0,0,0,0,0,1.845,1.8451,1.8507,1.8511,1.8665,1.8665,1.8845,1.8846,0,0,0,0,0,0,0,0,0,0,0,1.845,1.8451,1.8452,1.8511,1.8664,1.8665,1.8844,1.8734,0,0,0,0,0,0,0,0,0,0,1.8588,1.8524,1.8451,1.8452,1.8512,1.8664,1.8665,1.8729,1.8741,1.8767,0,1.8787,0,1.8819,1.8857,1.8858,0,0,0,1.8519,1.8514,1.8566,1.8452,1.8513,1.8664,1.8598,1.8736,1.875,1.8783,1.879,1.8797,1.8822,1.8858,1.8859,1.898,1.898,0,0,1.8511,1.8472,1.8556,1.8574,1.8548,1.8593,1.8602,1.8745,1.8749,1.879,1.8801,1.8825,1.8859,1.886,1.898,1.898,0,0,0,1.8481,1.8466,1.8515,1.8566,1.8595,1.8597,1.8608,1.8743,1.8762,1.8803,1.8827,1.886,1.8862,1.898,1.898,1.8949,0,0,0,1.8476,1.8448,1.851,1.8488,1.8592,1.8671,1.8603,1.8752,1.877,1.8826,1.886,1.8864,1.8979,1.898,1.895,1.8941,0,0,0,1.8444,1.8445,1.8463,1.8486,1.8551,1.8669,1.8697,1.8757,1.8784,1.8858,1.8864,1.8979,1.898,1.895,1.8942,1.8962,0,0,0,1.8399,1.8434,1.8462,1.851,1.8549,1.8649,1.8697,1.8774,1.8833,1.8861,1.8979,1.898,1.8951,1.8943,1.8962,1.897,1.897,0,0,1.8421,1.8435,1.8466,1.8496,1.8581,1.8629,1.8711,1.8803,1.8846,1.8933,1.8936,1.895,1.8942,1.8962,1.8986,1.8985,0,0,0,1.846,1.8482,1.8513,1.8568,1.8639,1.8699,1.8783,1.8817,1.8893,1.8882,1.8964,1.8961,1.8974,1.8979,1.8979,1.8993,1.8981,1.8981,1.8981,1.8434,1.8488,1.8543,1.8615,1.8668,1.8754,1.8802,1.8864,1.8901,1.892,1.8946,1.8954,1.8959,1.8959,1.8973,1.8955,1.8955,1.8955,1.8955,1.8471,1.851,1.8561,1.8633,1.8689,1.8751,1.8836,1.8861,1.8927,1.8938,1.8953,1.8959,1.8957,1.8972,1.8953,1.8954,1.8954,1.8954,1.8954,1.8459,1.8487,1.8529,1.8615,1.8675,1.8747,1.8808,1.8858,1.8905,1.8919,1.8952,1.8953,1.8959,1.8932,1.8932,1.8932,1.8932,1.8932,1.8932,1.843,1.8478,1.8523,1.8602,1.8645,1.8707,1.8795,1.8838,1.8899,1.893,1.8931,1.8967,1.8947,1.8941,1.8932,1.8932,1.8932,1.8932,1.8932,1.8446,1.8451,1.852,1.8562,1.866,1.8717,1.878,1.8864,1.8908,1.8936,1.8971,1.8948,1.8966,1.8966,1.8961,1.8959,1.8959,1.8959,1.8959,1.8436,1.845,1.8533,1.8597,1.8667,1.8731,1.8808,1.8878,1.895,1.8981,1.8989,1.8987,1.8985,1.9004,1.9004,1.9,1.9007,1.9007,1.9007,1.8449,1.8472,1.8528,1.8598,1.8679,1.8747,1.8821,1.8895,1.8978,1.901,1.9006,1.9004,1.9001,1.8997,1.9027,1.9026,1.902,0,0]}]]